TimeMDT,TemperatureF,Dew PointF,Humidity,Sea Level PressureIn,VisibilityMPH,Wind Direction,Wind SpeedMPH,Gust SpeedMPH,PrecipitationIn,Events,Conditions,WindDirDegrees,DateUTC
12:15 AM,42.8,26.6,53,30.35,10.0,Calm,Calm,-,N/A,,Clear,0,2012-10-02 06:15:00
12:35 AM,42.8,26.6,53,30.35,10.0,NNE,4.6,-,N/A,,Clear,20,2012-10-02 06:35:00
1:15 AM,39.2,28.4,65,30.35,10.0,Calm,Calm,-,N/A,,Clear,0,2012-10-02 07:15:00
1:35 AM,39.2,28.4,65,30.36,10.0,Calm,Calm,-,N/A,,Clear,0,2012-10-02 07:35:00
1:55 AM,39.2,26.6,61,30.36,10.0,NNW,4.6,-,N/A,,Clear,330,2012-10-02 07:55:00
2:15 AM,39.2,26.6,61,30.36,10.0,NNE,3.5,-,N/A,,Clear,30,2012-10-02 08:15:00
2:35 AM,37.4,26.6,65,30.36,10.0,North,4.6,-,N/A,,Clear,360,2012-10-02 08:35:00
2:55 AM,37.4,26.6,65,30.36,10.0,Calm,Calm,-,N/A,,Clear,0,2012-10-02 08:55:00
3:15 AM,35.6,26.6,70,30.36,10.0,Calm,Calm,-,N/A,,Clear,0,2012-10-02 09:15:00
3:35 AM,37.4,26.6,65,30.35,10.0,Calm,Calm,-,N/A,,Clear,0,2012-10-02 09:35:00
3:55 AM,35.6,26.6,70,30.35,10.0,Calm,Calm,-,N/A,,Clear,0,2012-10-02 09:55:00
4:35 AM,33.8,26.6,75,30.36,10.0,Calm,Calm,-,N/A,,Clear,0,2012-10-02 10:35:00
5:15 AM,33.8,26.6,75,30.36,10.0,Calm,Calm,-,N/A,,Clear,0,2012-10-02 11:15:00
5:35 AM,33.8,24.8,70,30.36,10.0,North,3.5,-,N/A,,Clear,360,2012-10-02 11:35:00
5:55 AM,33.8,24.8,70,30.36,10.0,Calm,Calm,-,N/A,,Clear,0,2012-10-02 11:55:00
6:15 AM,30.2,23.0,75,30.36,10.0,Calm,Calm,-,N/A,,Clear,0,2012-10-02 12:15:00
6:35 AM,32.0,24.8,75,30.36,10.0,Calm,Calm,-,N/A,,Clear,0,2012-10-02 12:35:00
6:55 AM,30.2,24.8,80,30.36,10.0,Calm,Calm,-,N/A,,Clear,0,2012-10-02 12:55:00
7:35 AM,28.4,21.2,74,30.37,10.0,Calm,Calm,-,N/A,,Clear,0,2012-10-02 13:35:00
7:55 AM,32.0,26.6,80,30.37,10.0,Calm,Calm,-,N/A,,Clear,0,2012-10-02 13:55:00
8:15 AM,35.6,26.6,70,30.37,10.0,Calm,Calm,-,N/A,,Clear,0,2012-10-02 14:15:00
8:35 AM,37.4,28.4,70,30.37,10.0,Calm,Calm,-,N/A,,Clear,0,2012-10-02 14:35:00
8:55 AM,39.2,28.4,65,30.37,10.0,Calm,Calm,-,N/A,,Clear,0,2012-10-02 14:55:00
9:15 AM,41.0,28.4,61,30.36,10.0,Calm,Calm,-,N/A,,Clear,0,2012-10-02 15:15:00
9:35 AM,42.8,28.4,57,30.36,10.0,Calm,Calm,-,N/A,,Clear,0,2012-10-02 15:35:00
9:55 AM,44.6,28.4,53,30.36,10.0,Calm,Calm,-,N/A,,Clear,0,2012-10-02 15:55:00
10:15 AM,46.4,28.4,50,30.35,10.0,Calm,Calm,-,N/A,,Clear,0,2012-10-02 16:15:00
10:35 AM,48.2,28.4,46,30.34,10.0,Calm,Calm,-,N/A,,Clear,0,2012-10-02 16:35:00
10:55 AM,51.8,28.4,41,30.33,10.0,Calm,Calm,-,N/A,,Clear,0,2012-10-02 16:55:00
11:15 AM,53.6,26.6,35,30.32,10.0,SW,3.5,-,N/A,,Clear,230,2012-10-02 17:15:00
11:35 AM,55.4,28.4,36,30.31,10.0,Calm,Calm,-,N/A,,Clear,0,2012-10-02 17:35:00
11:55 AM,57.2,28.4,33,30.29,10.0,WSW,4.6,-,N/A,,Clear,250,2012-10-02 17:55:00
12:15 PM,60.8,28.4,29,30.28,10.0,WSW,9.2,-,N/A,,Clear,240,2012-10-02 18:15:00
12:35 PM,62.6,30.2,30,30.27,10.0,SW,8.1,-,N/A,,Clear,220,2012-10-02 18:35:00
12:55 PM,64.4,30.2,28,30.25,10.0,WSW,12.7,-,N/A,,Clear,250,2012-10-02 18:55:00
1:15 PM,66.2,30.2,26,30.24,10.0,SW,10.4,-,N/A,,Clear,230,2012-10-02 19:15:00
1:55 PM,68.0,28.4,23,30.21,10.0,SSW,5.8,16.1,N/A,,Clear,210,2012-10-02 19:55:00
2:15 PM,69.8,26.6,20,30.20,10.0,SW,15.0,18.4,N/A,,Clear,230,2012-10-02 20:15:00
2:35 PM,71.6,26.6,19,30.19,10.0,SW,16.1,21.9,N/A,,Clear,230,2012-10-02 20:35:00
2:55 PM,71.6,26.6,19,30.18,10.0,SW,13.8,25.3,N/A,,Clear,220,2012-10-02 20:55:00
3:15 PM,71.6,26.6,19,30.18,10.0,WSW,17.3,23.0,N/A,,Clear,240,2012-10-02 21:15:00
3:35 PM,71.6,26.6,19,30.17,10.0,SW,13.8,23.0,N/A,,Clear,230,2012-10-02 21:35:00
3:55 PM,69.8,24.8,18,30.17,10.0,SSW,13.8,21.9,N/A,,Clear,210,2012-10-02 21:55:00
4:15 PM,69.8,24.8,18,30.16,10.0,SW,15.0,23.0,N/A,,Clear,230,2012-10-02 22:15:00
4:35 PM,69.8,24.8,18,30.16,10.0,SW,12.7,-,N/A,,Clear,230,2012-10-02 22:35:00
4:55 PM,69.8,24.8,18,30.16,10.0,SW,12.7,20.7,N/A,,Clear,230,2012-10-02 22:55:00
5:15 PM,69.8,24.8,18,30.16,10.0,SW,17.3,24.2,N/A,,Clear,230,2012-10-02 23:15:00
5:35 PM,69.8,23.0,17,30.16,10.0,SW,13.8,25.3,N/A,,Clear,230,2012-10-02 23:35:00
6:15 PM,68.0,23.0,18,30.17,10.0,SW,13.8,19.6,N/A,,Clear,230,2012-10-03 00:15:00
6:35 PM,66.2,23.0,19,30.17,10.0,SW,10.4,-,N/A,,Clear,230,2012-10-03 00:35:00
6:55 PM,64.4,23.0,21,30.18,10.0,WSW,5.8,-,N/A,,Clear,250,2012-10-03 00:55:00
7:35 PM,60.8,23.0,23,30.19,10.0,WSW,8.1,-,N/A,,Clear,250,2012-10-03 01:35:00
8:15 PM,57.2,24.8,29,30.20,10.0,ENE,4.6,-,N/A,,Clear,70,2012-10-03 02:15:00
8:35 PM,57.2,23.0,27,30.20,10.0,NNW,3.5,-,N/A,,Clear,330,2012-10-03 02:35:00
8:55 PM,55.4,24.8,31,30.21,10.0,Calm,Calm,-,N/A,,Clear,0,2012-10-03 02:55:00
9:15 PM,53.6,24.8,33,30.22,10.0,Calm,Calm,-,N/A,,Clear,0,2012-10-03 03:15:00
9:35 PM,51.8,26.6,38,30.22,10.0,Calm,Calm,-,N/A,,Clear,0,2012-10-03 03:35:00
9:55 PM,50.0,26.6,40,30.23,10.0,Calm,Calm,-,N/A,,Clear,0,2012-10-03 03:55:00
10:15 PM,48.2,24.8,40,30.23,10.0,Calm,Calm,-,N/A,,Clear,0,2012-10-03 04:15:00
10:35 PM,48.2,24.8,40,30.24,10.0,NNW,4.6,-,N/A,,Clear,340,2012-10-03 04:35:00
10:55 PM,46.4,24.8,43,30.24,10.0,North,5.8,-,N/A,,Clear,360,2012-10-03 04:55:00
11:15 PM,44.6,24.8,46,30.24,10.0,NNE,4.6,-,N/A,,Clear,30,2012-10-03 05:15:00
11:35 PM,44.6,24.8,46,30.24,10.0,Calm,Calm,-,N/A,,Clear,0,2012-10-03 05:35:00
11:55 PM,42.8,23.0,46,30.24,10.0,Calm,Calm,-,N/A,,Clear,0,2012-10-03 05:55:00